642  
ASUS44 KFWD 220015  
RWRTX  
NORTH TEXAS HOURLY WEATHER ROUNDUP  
NATIONAL WEATHER SERVICE FORT WORTH TX  
700 PM CDT THU OCT 21 2021  
 
NOTE: "FAIR" INDICATES FEW OR NO CLOUDS BELOW 12,000 FEET WITH NO  
SIGNIFICANT WEATHER AND/OR S TO VISIBILITY
.  
 
TXZ118-119-220100-  
DALLAS/FORT WORTH METROPLEX  
 
CITY SKY/WX TMP DP RH WIND PRES REMARKS
 
DFW AIRPORT FAIR 74 45 35 NE6 30.09F  
6HR MIN TEMP: 74; 6HR MAX TEMP: 84;  
 
DALLAS LOVE FAIR 77 49 37 E5 30.10F  
6HR MIN TEMP: 77; 6HR MAX TEMP: 83;  
 
FTW MEACHAM FAIR 76 51 41 NE6 30.10S  
6HR MIN TEMP: 76; 6HR MAX TEMP: 82;  
 
DAL-EXECUTIVE FAIR 77 52 41 E7 30.10S  
6HR MIN TEMP: 77; 6HR MAX TEMP: 83;  
 
FTW-ALLIANCE FAIR 76 48 37 NE9 30.11S  
6HR MIN TEMP: 76; 6HR MAX TEMP: 83;  
 
FTW-NAS-JRB FAIR 79 54 41 E7 30.11S  
6HR MIN TEMP: 78; 6HR MAX TEMP: 84;  
 
FTW-SPINKS CLEAR 75 59 57 NE3 30.12S  
ARLINGTON FAIR 82 56 40 NE5 30.10F  
6HR MIN TEMP: 81; 6HR MAX TEMP: 87;  
 
GRAND PRAIRIE CLEAR 77 54 44 NE6 30.11F  
ADDISON CLEAR 79 41 25 E7 30.11F  
MESQUITE CLEAR 73 54 49 CALM 30.11F  
LANCASTER FAIR 77 56 47 NE3 30.11S  
6HR MIN TEMP: 76; 6HR MAX TEMP: 82;  
 

 
 
TXZ091>094-102>105-117-120-121-131>134-220100-  
NORTH CENTRAL TEXAS  
 
CITY SKY/WX TMP DP RH WIND PRES REMARKS
 
SHRMAN/DENISON CLEAR 66 48 52 N5 30.16S  
GAINESVILLE FAIR 69 46 43 E5 30.16S  
6HR MIN TEMP: 69; 6HR MAX TEMP: 78;  
 
BOWIE FAIR 69 48 46 E3 30.14S  
6HR MIN TEMP: 69; 6HR MAX TEMP: 80;  
 
BRIDGEPORT FAIR 72 52 48 CALM 30.14R  
6HR MIN TEMP: 72; 6HR MAX TEMP: 81;  
 
DECATUR FAIR 72 47 41 E5 30.13S  
6HR MIN TEMP: 72; 6HR MAX TEMP: 80;  
 
DENTON FAIR 71 48 43 N8 30.12S  
6HR MIN TEMP: 71; 6HR MAX TEMP: 82;  
 
MCKINNEY FAIR 74 46 36 NE8 30.12S  
6HR MIN TEMP: 74; 6HR MAX TEMP: 84;  
 
BONHAM FAIR 68 50 52 N5 30.14S  
6HR MIN TEMP: 67; 6HR MAX TEMP: 79;  
 
GREENVILLE FAIR 71 49 46 N6 30.12S  
6HR MIN TEMP: 71; 6HR MAX TEMP: 83;  
 
ROCKWALL FAIR 73 51 45 N3 30.12S HAZE  
6HR MIN TEMP: 73; 6HR MAX TEMP: 82;  
 
TERRELL FAIR 75 52 44 NE6 30.11S  
6HR MIN TEMP: 75; 6HR MAX TEMP: 85;  
 
WAXAHACHIE FAIR 76 61 60 CALM 30.11F  
6HR MIN TEMP: 76; 6HR MAX TEMP: 83;  
 
CLEBURNE CLEAR 77 61 57 NE7 30.11S  
GRANBURY FAIR 78 60 53 NE6 30.11S  
6HR MIN TEMP: 78; 6HR MAX TEMP: 84;  
 

 
 
TXZ083>090-098>101-113>116-127>130-139>142-154-155-220100-  
WESTERN NORTH TEXAS  
 
CITY SKY/WX TMP DP RH WIND PRES REMARKS
 
WICHITA FALLS FAIR 70 44 39 E7 30.13S  
6HR MIN TEMP: 70; 6HR MAX TEMP: 81;  
 
WF-KICKAPOO FAIR 74 44 33 NE6 30.14S  
6HR MIN TEMP: 74; 6HR MAX TEMP: 80;  
 
VERNON FAIR 74 42 32 E7 30.15R  
6HR MIN TEMP: 73; 6HR MAX TEMP: 80;  
 
ABILENE FAIR 77 63 61 SE8 30.13R  
6HR MIN TEMP: 77; 6HR MAX TEMP: 83;  
 
ABILENE-DYESS MOCLDY 79 59 50 SE10 30.11R  
6HR MIN TEMP: 76; 6HR MAX TEMP: 82;  
 
BRECKENRIDGE FAIR 78 60 53 E6 30.12R  
6HR MIN TEMP: 78; 6HR MAX TEMP: 88;  
 
CISCO CLOUDY 77 63 61 SE7 30.12R  
EASTLAND FAIR 73 61 64 E3 30.13S  
6HR MIN TEMP: 73; 6HR MAX TEMP: 80;  
 
RANGER FAIR 69 62 79 CALM 30.14R  
6HR MIN TEMP: 69; 6HR MAX TEMP: 80;  
 
MINERAL WELLS FAIR 75 59 57 NE6 30.10R  
6HR MIN TEMP: 75; 6HR MAX TEMP: 83;  
 
STEPHENVILLE FAIR 76 60 58 CALM 30.15R  
6HR MIN TEMP: 76; 6HR MAX TEMP: 82;  
 
COMANCHE FAIR 75 62 64 E6 30.12F  
6HR MIN TEMP: 75; 6HR MAX TEMP: 87;  
 
BROWNWOOD MOCLDY 77 64 65 NE3 30.12S  
COLEMAN FAIR 75 64 66 S5 30.14S  
6HR MIN TEMP: 75; 6HR MAX TEMP: 81;  
 
BRADY N/A 75 64 69 E5 N/A  
SAN SABA FAIR 78 66 66 SE3 30.12F  
6HR MIN TEMP: 78; 6HR MAX TEMP: 82;  
 

 
 
TXZ143>147-156>162-174-175-220100-  
CENTRAL TEXAS  
 
CITY SKY/WX TMP DP RH WIND PRES REMARKS
 
WACO FAIR 75 65 70 E3 30.08R  
6HR MIN TEMP: 75; 6HR MAX TEMP: 87;  
 
WACO-TSTC CLEAR 77 63 61 N5 30.08S  
WACO-MCGREGOR FAIR 78 66 66 NE5 30.09R  
6HR MIN TEMP: 78; 6HR MAX TEMP: 84;  
 
CORSICANA FAIR 79 62 56 NE5 30.10S  
6HR MIN TEMP: 78; 6HR MAX TEMP: 88;  
 
MEXIA FAIR 78 66 66 NE3 30.08F  
6HR MIN TEMP: 78; 6HR MAX TEMP: 86;  
 
HEARNE FAIR 80 67 63 CALM 30.07F HAZE  
6HR MIN TEMP: 80; 6HR MAX TEMP: 88;  
 
CAMERON FAIR 79 65 62 CALM 30.06F  
6HR MIN TEMP: 79; 6HR MAX TEMP: 86;  
 
TEMPLE FAIR 78 66 66 NE5 30.09R  
6HR MIN TEMP: 78; 6HR MAX TEMP: 87;  
 
KILLEEN CLOUDY 77 63 61 SE5 30.08R  
6HR MIN TEMP: 77; 6HR MAX TEMP: 85;  
 
KILLEEN-SKYLRK FAIR 79 65 62 SE3 30.10R  
6HR MIN TEMP: 79; 6HR MAX TEMP: 85;  
 
FORT HOOD LGT RAIN 79 64 61 E3 30.10R VSB 1/8  
6HR MIN TEMP: 79; 6HR MAX TEMP: 85; 6HR PCP: TRACE;  
 
GATESVILLE FAIR 77 64 65 NE3 30.12R  
HAMILTON CLOUDY 79 64 58 E6 30.13R HAZE  
6HR MIN TEMP: 79; 6HR MAX TEMP: 91;  
 
LAMPASAS MOCLDY 75 66 72 CALM 30.09S  
6HR MIN TEMP: 75; 6HR MAX TEMP: 82;  
 

 
 
TXZ095>097-106>112-122>126-135>138-148>153-164>167-220100-  
EAST TEXAS  
 
CITY SKY/WX TMP DP RH WIND PRES REMARKS
 
PARIS FAIR 71 48 43 N5 30.14S  
6HR MIN TEMP: 71; 6HR MAX TEMP: 80;  
 
SULPHUR SPRNGS FAIR 73 51 47 N6 30.14S  
6HR MIN TEMP: 73; 6HR MAX TEMP: 83;  
 
MOUNT PLEASANT FAIR 75 43 31 N5 30.11R  
6HR MIN TEMP: 75; 6HR MAX TEMP: 85;  
 
GILMER FAIR N/A N/A N/A CALM 30.11R  
MINEOLA FAIR 70 54 56 CALM 30.11S  
TYLER FAIR 77 63 61 N6 30.09S  
6HR MIN TEMP: 77; 6HR MAX TEMP: 87;  
 
LONGVIEW FAIR 78 61 55 N5 30.08S  
6HR MIN TEMP: 78; 6HR MAX TEMP: 89;  
 
MARSHALL FAIR 73 60 65 CALM 30.11S  
6HR MIN TEMP: 73; 6HR MAX TEMP: 85;  
 
ATHENS FAIR 77 64 65 CALM 30.08S  
PALESTINE FAIR 75 68 78 CALM 30.08S  
JACKSONVILLE FAIR 78 64 60 CALM 30.12R  
HENDERSON FAIR 78 62 58 CALM 30.11R  
6HR MIN TEMP: 78; 6HR MAX TEMP: 88;  
 
CENTER FAIR 79 70 73 CALM 30.09R  
NACOGDOCHES FAIR 81 63 54 N3 30.08S  
6HR MIN TEMP: 81; 6HR MAX TEMP: 89;  
 
LUFKIN FAIR 82 64 54 CALM 30.07R  
6HR MIN TEMP: 82; 6HR MAX TEMP: 92;  
 

 
 
SUPPLEMENTAL OBSERVATIONS (NWS FORT WORTH AREA)  
 
CITY SKY/WX TMP DP RH WIND PRES REMARKS
 
CADDO GRASSLND N/A 66 43 42 CALM N/A  
LBJ GRASSLAND N/A 72 46 40 NE3 N/A  
 
CLICK HERE TO GO TO PREVIOUS BULLETINS.

The Nexlab TX Page Main Text Page